When you browse on this site, cookies collect data to enhance your experience and personalize the content and advertising you see.
Visit our Privacy Policy to learn more. By continuing to use the site, you agree to this use of cookies and data.
  • In Latvia
  • List of Countries
  • For 7 days
  • Water Temperature
  • Weather Map
  • Weather Widgets
  • user-avatar
    Login

    Hourly Weather Kaunas

    Today, 20 August, Tuesday

    Time Temperature Precipitation Wind Pressure Humidity
    00:00 +18°C° 0 mm 1 mps 758 mmHg 86%
    01:00 +18°C° 0 mm 1 mps 758 mmHg 87%
    02:00 +16°C° 0 mm 1 mps 758 mmHg 87%
    03:00 +15°C° 0 mm 1 mps 759 mmHg 88%
    04:00 +14°C° 0 mm 0 mps 759 mmHg 88%
    05:00 +13°C° 0 mm 0 mps 759 mmHg 89%
    06:00 +15°C° 0 mm 0 mps 760 mmHg 84%
    07:00 +16°C° 0 mm 0 mps 760 mmHg 80%
    08:00 +18°C° 0 mm 0 mps 760 mmHg 74%
    09:00 +19°C° 0 mm 0 mps 760 mmHg 68%
    10:00 +21°C° 0 mm 0 mps 760 mmHg 62%
    11:00 +22°C° 0 mm 0 mps 760 mmHg 57%
    12:00 +24°C° 0 mm 1 mps 761 mmHg 56%
    13:00 +25°C° 0 mm 1 mps 761 mmHg 55%
    14:00 +25°C° 0 mm 1 mps 761 mmHg 52%
    15:00 +25°C° 0 mm 1 mps 761 mmHg 53%
    16:00 +25°C° 0 mm 1 mps 761 mmHg 55%
    17:00 +25°C° 0 mm 1 mps 761 mmHg 56%
    18:00 +23°C° 0 mm 1 mps 761 mmHg 63%
    19:00 +21°C° 0 mm 1 mps 761 mmHg 70%
    20:00 +19°C° 0 mm 1 mps 761 mmHg 77%
    21:00 +19°C° 0 mm 1 mps 762 mmHg 79%
    22:00 +19°C° 0 mm 1 mps 762 mmHg 80%
    23:00 +18°C° 0 mm 1 mps 762 mmHg 81%

    Tomorrow, 21 August, Wednesday

    Time Temperature Precipitation Wind Pressure Humidity
    00:00 +18°C° 0 mm 1 mps 762 mmHg 81%
    01:00 +18°C° 0 mm 1 mps 762 mmHg 80%
    02:00 +18°C° 0 mm 1 mps 762 mmHg 80%
    03:00 +17°C° 0 mm 2 mps 761 mmHg 80%
    04:00 +17°C° 0 mm 2 mps 761 mmHg 80%
    05:00 +17°C° 0 mm 3 mps 761 mmHg 81%
    06:00 +17°C° 1 mm 3 mps 761 mmHg 85%
    07:00 +15°C° 1 mm 4 mps 760 mmHg 90%
    08:00 +15°C° 1 mm 4 mps 760 mmHg 94%
    09:00 +14°C° 2.6 mm 5 mps 760 mmHg 94%
    10:00 +14°C° 2.6 mm 6 mps 760 mmHg 94%
    11:00 +14°C° 2.6 mm 6 mps 760 mmHg 93%
    12:00 +14°C° 0.5 mm 6 mps 760 mmHg 93%
    13:00 +13°C° 0.5 mm 5 mps 761 mmHg 93%
    14:00 +13°C° 0.5 mm 5 mps 761 mmHg 93%
    15:00 +13°C° 0.1 mm 5 mps 761 mmHg 94%
    16:00 +13°C° 0.1 mm 4 mps 761 mmHg 94%
    17:00 +13°C° 0.1 mm 4 mps 762 mmHg 95%
    18:00 +13°C° 0 mm 3 mps 762 mmHg 95%
    19:00 +13°C° 0 mm 3 mps 763 mmHg 95%
    20:00 +14°C° 0 mm 2 mps 763 mmHg 95%
    21:00 +13°C° 0 mm 2 mps 763 mmHg 95%
    22:00 +13°C° 0 mm 2 mps 763 mmHg 96%
    23:00 +12°C° 0 mm 2 mps 764 mmHg 97%

    Day after tomorrow, 22 August, Thursday

    Time Temperature Precipitation Wind Pressure Humidity
    00:00 +12°C° 0 mm 2 mps 764 mmHg 97%
    01:00 +12°C° 0 mm 2 mps 764 mmHg 97%
    02:00 +12°C° 0 mm 2 mps 765 mmHg 97%
    03:00 +12°C° 0 mm 2 mps 765 mmHg 97%
    04:00 +12°C° 0 mm 2 mps 765 mmHg 97%
    05:00 +12°C° 0 mm 2 mps 764 mmHg 97%
    06:00 +13°C° 0 mm 2 mps 765 mmHg 94%
    07:00 +14°C° 0 mm 2 mps 765 mmHg 92%
    08:00 +15°C° 0 mm 2 mps 765 mmHg 89%
    09:00 +17°C° 0 mm 2 mps 765 mmHg 82%
    10:00 +18°C° 0 mm 2 mps 765 mmHg 74%
    11:00 +20°C° 0 mm 2 mps 765 mmHg 66%
    12:00 +20°C° 0 mm 2 mps 765 mmHg 62%
    13:00 +21°C° 0 mm 2 mps 765 mmHg 57%
    14:00 +23°C° 0 mm 2 mps 765 mmHg 53%
    15:00 +23°C° 0 mm 2 mps 765 mmHg 54%
    16:00 +23°C° 0 mm 2 mps 765 mmHg 56%
    17:00 +23°C° 0 mm 2 mps 765 mmHg 58%
    18:00 +20°C° 0 mm 2 mps 765 mmHg 65%
    19:00 +19°C° 0 mm 1 mps 765 mmHg 73%
    20:00 +16°C° 0 mm 1 mps 765 mmHg 81%
    21:00 +15°C° 0 mm 1 mps 765 mmHg 83%
    22:00 +15°C° 0 mm 1 mps 765 mmHg 86%
    23:00 +14°C° 0 mm 1 mps 765 mmHg 88%

    23 August, Friday

    Time Temperature Precipitation Wind Pressure Humidity
    00:00 +14°C° 0 mm 1 mps 765 mmHg 89%
    01:00 +13°C° 0 mm 1 mps 765 mmHg 89%
    02:00 +13°C° 0 mm 1 mps 765 mmHg 89%
    03:00 +13°C° 0 mm 1 mps 765 mmHg 90%
    04:00 +13°C° 0 mm 1 mps 765 mmHg 91%
    05:00 +12°C° 0 mm 1 mps 765 mmHg 92%
    06:00 +14°C° 0 mm 1 mps 765 mmHg 88%
    07:00 +15°C° 0 mm 2 mps 765 mmHg 84%
    08:00 +17°C° 0 mm 2 mps 765 mmHg 79%
    09:00 +18°C° 0 mm 2 mps 766 mmHg 72%
    10:00 +20°C° 0 mm 2 mps 766 mmHg 65%
    11:00 +23°C° 0 mm 2 mps 766 mmHg 58%
    12:00 +23°C° 0 mm 2 mps 766 mmHg 56%
    13:00 +24°C° 0 mm 2 mps 765 mmHg 54%
    14:00 +25°C° 0 mm 2 mps 765 mmHg 52%
    15:00 +24°C° 0 mm 2 mps 765 mmHg 56%
    16:00 +24°C° 0 mm 2 mps 765 mmHg 60%
    17:00 +24°C° 0 mm 2 mps 765 mmHg 64%
    18:00 +22°C° 0 mm 1 mps 765 mmHg 68%
    19:00 +20°C° 0 mm 1 mps 764 mmHg 72%
    20:00 +19°C° 0 mm 1 mps 764 mmHg 77%
    21:00 +18°C° 0 mm 1 mps 765 mmHg 78%
    22:00 +18°C° 0 mm 1 mps 765 mmHg 79%
    23:00 +16°C° 0 mm 1 mps 765 mmHg 80%

    24 August, Saturday

    Time Temperature Precipitation Wind Pressure Humidity
    00:00 +16°C° 0 mm 2 mps 765 mmHg 81%
    01:00 +15°C° 0 mm 2 mps 765 mmHg 81%
    02:00 +15°C° 0 mm 2 mps 765 mmHg 82%
    03:00 +15°C° 0 mm 2 mps 764 mmHg 82%
    04:00 +14°C° 0 mm 2 mps 764 mmHg 82%
    05:00 +14°C° 0 mm 2 mps 764 mmHg 82%
    06:00 +15°C° 0 mm 2 mps 764 mmHg 79%
    07:00 +16°C° 0 mm 2 mps 764 mmHg 77%
    08:00 +18°C° 0 mm 2 mps 764 mmHg 74%
    09:00 +19°C° 0 mm 2 mps 764 mmHg 70%
    10:00 +21°C° 0 mm 3 mps 764 mmHg 66%
    11:00 +22°C° 0 mm 3 mps 764 mmHg 61%
    12:00 +24°C° 0 mm 3 mps 764 mmHg 59%
    13:00 +25°C° 0 mm 3 mps 763 mmHg 56%
    14:00 +25°C° 0 mm 3 mps 763 mmHg 54%
    15:00 +25°C° 0 mm 3 mps 763 mmHg 57%
    16:00 +25°C° 0 mm 2 mps 763 mmHg 59%
    17:00 +25°C° 0 mm 2 mps 762 mmHg 61%
    18:00 +23°C° 0 mm 2 mps 762 mmHg 67%
    19:00 +20°C° 0 mm 2 mps 762 mmHg 72%
    20:00 +19°C° 0 mm 1 mps 762 mmHg 78%
    21:00 +18°C° 0 mm 1 mps 762 mmHg 81%
    22:00 +18°C° 0 mm 1 mps 763 mmHg 84%
    23:00 +16°C° 0 mm 1 mps 763 mmHg 87%

    25 August, Sunday

    Time Temperature Precipitation Wind Pressure Humidity
    00:00 +16°C° 0 mm 1 mps 763 mmHg 88%
    01:00 +15°C° 0 mm 1 mps 763 mmHg 90%
    02:00 +15°C° 0 mm 1 mps 763 mmHg 91%
    03:00 +14°C° 0 mm 1 mps 763 mmHg 92%
    04:00 +14°C° 0 mm 1 mps 763 mmHg 93%
    05:00 +14°C° 0 mm 1 mps 763 mmHg 94%
    06:00 +15°C° 0 mm 1 mps 763 mmHg 90%
    07:00 +16°C° 0 mm 1 mps 763 mmHg 87%
    08:00 +18°C° 0 mm 2 mps 763 mmHg 83%
    09:00 +19°C° 0 mm 2 mps 763 mmHg 78%
    10:00 +20°C° 0 mm 2 mps 763 mmHg 73%
    11:00 +23°C° 0 mm 2 mps 764 mmHg 68%
    12:00 +23°C° 0 mm 2 mps 763 mmHg 66%
    13:00 +23°C° 0 mm 2 mps 763 mmHg 64%
    14:00 +24°C° 0 mm 2 mps 763 mmHg 62%
    15:00 +24°C° 0 mm 2 mps 763 mmHg 63%
    16:00 +24°C° 0 mm 2 mps 763 mmHg 63%
    17:00 +24°C° 0 mm 2 mps 762 mmHg 63%
    18:00 +21°C° 0 mm 2 mps 762 mmHg 69%
    19:00 +19°C° 0 mm 2 mps 762 mmHg 74%
    20:00 +18°C° 0 mm 2 mps 762 mmHg 80%
    21:00 +17°C° 0 mm 2 mps 762 mmHg 82%
    22:00 +17°C° 0 mm 2 mps 763 mmHg 84%
    23:00 +16°C° 0 mm 2 mps 763 mmHg 86%
    Show more